Wind_Speed
9 9 9 9 9 9 8 8 7 6 5 5 5 6 6 7 7 8 8 8 9 9 9 10 11 12 13 14 14 14 14 15 16 17 17 17 17 17 17 17 17 16 17
9 9 9 10 9 9 8 7 6 6 5 5 4 5 5 6 6 7 8 8 8 8 9 10 11 12 13 14 14 15 15 15 16 17 17 18 18 17 18 18 18 18 18
9 9 9 10 10 9 8 7 7 6 5 4 4 4 4 4 5 6 7 7 8 8 9 9 10 11 12 13 13 14 14 14 15 16 17 17 18 18 18 18 19 19 19
9 9 9 9 10 9 8 7 7 6 5 4 3 3 3 3 4 5 6 7 8 8 9 9 9 10 11 12 13 13 14 15 15 16 17 18 18 18 19 19 19 20 20
8 9 9 9 9 9 9 8 7 6 5 3 2 2 2 3 4 4 5 6 7 7 8 9 9 10 10 11 12 13 13 14 15 16 17 18 19 20 20 20 20 20 20
8 8 8 9 9 9 9 8 7 6 4 3 2 2 2 2 3 4 4 5 6 7 8 9 9 9 10 11 12 12 12 13 15 16 17 18 19 21 21 21 21 21 20
8 8 8 8 8 8 8 8 7 6 4 3 3 2 2 2 3 4 4 5 5 6 7 8 9 10 11 12 13 13 12 13 15 16 17 17 18 19 20 21 22 21 21
7 7 8 8 8 8 7 7 7 7 5 3 3 3 2 2 2 3 4 4 5 5 6 8 9 10 10 11 13 14 13 14 14 15 14 15 15 16 18 19 20 22 22
6 7 7 7 8 7 7 7 7 7 6 5 4 4 3 2 2 2 3 3 4 4 6 7 8 9 10 11 12 13 13 14 15 16 15 13 14 15 17 17 19 21 22
6 6 7 7 8 7 7 7 7 7 6 5 5 5 4 3 3 3 2 2 3 4 5 6 8 9 9 10 11 12 13 14 15 16 15 14 14 15 15 16 17 18 20
6 6 7 7 7 7 7 7 7 7 7 7 6 6 5 4 4 3 3 2 3 3 4 5 6 7 7 8 9 11 11 12 12 14 14 14 14 15 15 15 15 17 19
5 5 6 6 6 7 7 7 7 7 7 7 7 7 6 5 5 4 4 4 3 3 4 4 5 6 6 7 8 9 9 10 11 13 13 14 14 14 14 15 16 15 16
4 4 5 5 6 6 7 7 7 7 7 7 7 7 7 6 5 5 5 5 4 4 4 4 5 5 6 7 7 8 8 9 11 12 13 13 13 14 15 15 16 16 16
4 4 5 5 6 6 6 7 7 7 7 7 7 7 7 6 6 6 6 6 5 5 5 5 5 5 6 7 8 8 8 9 10 11 12 13 14 14 15 15 16 17 17
4 4 4 5 5 5 5 6 6 7 7 6 6 7 7 7 7 7 7 6 6 6 6 6 6 6 6 7 8 8 9 9 10 11 12 13 13 14 15 16 17 18 19
5 5 4 4 5 5 5 6 6 7 7 6 6 7 7 7 7 8 8 8 7 7 7 8 7 7 8 8 9 9 10 10 11 11 13 14 14 15 16 16 17 19 20
5 5 5 4 5 5 6 6 6 7 7 7 7 7 7 7 8 8 9 9 9 9 9 9 9 9 9 10 10 10 10 11 11 12 13 14 15 16 17 17 18 19 20
6 6 6 5 5 6 6 6 6 7 7 7 7 7 8 8 9 9 10 11 11 11 10 10 10 10 11 11 11 11 11 12 12 13 14 15 16 17 18 18 19 20 21
8 7 7 7 7 7 7 7 7 7 8 8 9 9 9 10 10 11 11 12 12 12 12 12 12 12 12 13 13 13 13 14 14 14 15 17 18 19 20 21 21 22 23
9 8 8 8 8 8 8 8 9 9 10 10 10 10 11 11 12 12 13 13 13 14 14 14 14 14 14 14 15 15 16 16 16 17 17 18 20 21 22 23 24 24 25
9 9 9 8 9 9 9 9 10 10 11 11 11 12 12 13 14 14 15 15 15 16 16 16 16 16 16 16 17 17 18 18 18 19 19 20 21 22 23 25 26 27 27
10 10 10 9 9 10 10 11 11 12 12 13 14 14 15 15 16 16 17 17 18 18 18 19 19 19 19 19 19 20 20 20 20 21 22 22 23 24 25 26 27 29 30
11 11 11 11 11 11 12 12 13 14 14 15 15 16 17 17 18 18 19 19 20 20 21 21 21 22 22 22 22 23 23 23 23 24 24 25 26 27 28 29 30 31 32
12 12 12 13 13 13 13 14 14 15 16 17 18 19 19 20 21 21 21 21 21 22 23 24 24 25 25 25 25 25 25 25 26 27 28 28 29 30 31 31 32 33 34
14 14 14 14 14 15 16 16 17 18 19 20 21 22 22 23 24 23 23 23 24 24 25 26 27 27 28 28 28 28 28 29 29 30 31 31 32 32 33 33 35 35 36
16 16 16 16 17 18 18 19 20 21 21 22 23 24 25 26 26 25 26 26 27 27 28 29 29 30 30 30 31 32 32 33 33 33 34 35 35 35 35 35 37 38 39
Wind_Direction
335 335 339 339 335 331 328 325 322 315 301 286 275 263 256 251 247 242 240 240 239 239 238 237 237 232 230 231 231 229 227 226 222 221 221 223 223 223 220 220 218 216 215
338 338 343 346 343 338 334 329 327 322 312 298 282 268 259 251 246 242 239 240 241 241 239 238 237 234 232 232 231 230 231 230 226 224 224 227 226 226 224 223 223 223 222
343 343 344 348 349 345 338 334 332 328 323 313 295 274 262 252 247 244 242 242 243 245 244 239 236 232 230 231 232 232 231 230 230 229 229 231 230 230 228 226 227 228 226
345 346 347 351 352 351 348 344 341 338 333 323 305 278 261 262 259 252 249 247 246 245 245 243 239 234 231 231 230 232 234 234 235 234 234 234 235 234 230 227 230 229 228
347 349 350 353 353 355 356 354 348 344 342 340 332 303 276 268 259 256 257 257 250 244 246 247 244 237 234 232 232 233 235 236 235 237 238 238 238 236 231 229 230 230 228
348 350 353 355 357 359 360 0 358 355 355 356 355 337 307 278 260 256 264 266 256 249 247 248 246 242 239 239 239 238 239 239 236 238 241 241 239 236 233 230 229 229 229
351 352 355 0 3 2 1 3 6 8 8 8 4 348 323 295 275 268 269 268 260 255 252 251 251 250 247 245 244 243 244 243 241 242 244 244 242 236 233 232 229 228 229
353 356 2 5 6 6 8 10 11 15 18 19 14 1 345 315 297 286 276 268 264 260 257 255 254 256 256 253 248 245 247 246 245 244 245 242 239 236 232 232 230 230 230
357 4 7 8 7 9 11 13 15 16 19 19 15 9 0 346 335 309 282 271 266 266 265 261 258 260 260 257 253 249 249 248 247 245 242 238 236 238 234 231 232 231 229
358 359 3 6 8 9 12 14 17 20 22 22 17 11 7 6 356 345 323 292 277 271 270 268 266 265 263 262 257 253 251 250 248 242 238 238 238 238 237 230 230 230 227
359 1 2 6 10 12 16 19 22 24 28 27 21 15 13 13 11 9 359 338 302 281 281 281 276 274 269 269 264 260 259 252 247 240 237 240 241 240 239 236 232 229 230
354 3 6 8 13 16 20 21 22 24 26 25 22 20 20 19 19 16 6 357 340 312 301 300 295 284 277 277 274 268 264 252 243 240 239 240 242 243 244 241 237 234 234
343 355 2 5 10 15 17 18 22 23 22 21 21 23 24 22 20 13 10 6 355 336 321 314 312 298 289 287 282 273 266 258 247 242 241 242 246 247 246 245 242 242 242
327 338 349 355 1 8 15 19 19 18 17 18 21 23 23 20 16 11 6 2 354 342 333 325 320 315 304 294 290 283 274 266 256 249 247 247 249 249 248 247 244 244 246
311 324 332 342 350 357 7 10 10 11 12 13 14 14 13 11 8 5 0 354 348 339 328 325 322 317 314 305 297 290 282 272 262 256 251 249 248 249 250 251 249 248 248
303 315 321 327 334 342 348 354 359 1 4 5 4 3 2 1 0 357 352 346 341 336 329 325 321 318 314 309 301 294 289 281 271 263 255 254 254 253 253 254 255 254 255
300 305 305 311 317 322 328 336 341 345 351 353 353 352 350 348 348 346 344 341 336 329 324 322 319 315 312 311 308 301 295 287 278 270 264 260 260 259 256 256 257 259 260
286 291 291 293 302 308 314 320 326 332 338 341 340 338 336 334 333 334 332 330 328 325 320 317 314 311 310 309 306 303 296 289 283 275 269 265 262 263 261 261 261 263 263
278 284 289 288 293 297 303 310 314 319 324 327 329 328 327 326 324 324 323 322 321 318 315 312 311 309 306 304 302 300 296 291 285 279 274 270 267 266 265 265 265 266 266
274 278 282 288 291 293 296 301 306 310 314 317 320 320 320 319 319 319 317 316 315 313 312 310 308 306 304 302 301 298 295 290 286 283 280 277 274 272 271 270 269 269 270
273 276 281 285 288 290 293 296 299 302 307 311 314 316 317 317 315 314 312 312 312 311 309 307 305 304 303 300 298 296 294 290 287 284 283 280 277 276 275 274 273 273 273
273 277 280 283 285 288 292 294 296 300 303 305 307 311 314 315 315 313 311 309 308 308 306 304 302 301 300 299 297 295 293 290 287 284 281 280 279 279 278 276 275 276 275
270 273 276 279 283 286 290 292 295 298 301 304 305 306 308 309 310 310 309 306 305 305 305 304 302 299 297 296 295 294 292 290 287 285 283 281 280 280 279 278 277 277 276
267 271 276 278 281 286 289 291 294 298 300 302 304 305 306 307 307 307 306 305 303 302 301 302 301 299 296 293 292 291 291 291 289 288 286 285 283 282 281 280 278 277 276
265 269 274 278 283 287 289 291 293 295 298 300 302 303 304 305 305 304 302 302 302 303 302 302 300 299 298 295 292 291 291 290 290 289 288 287 285 283 282 282 281 279 277
266 270 273 277 282 286 289 292 293 295 297 299 301 302 303 304 303 301 301 300 300 299 299 300 299 297 297 296 293 292 291 290 289 288 288 287 286 284 283 282 282 281 280
Height
5877 5875 5873 5872 5870 5868 5867 5866 5865 5864 5863 5863 5863 5864 5865 5866 5867 5868 5870 5871 5872 5873 5874 5876 5877 5879 5881 5883 5885 5887 5889 5891 5893 5896 5898 5900 5902 5905 5907 5909 5911 5913 5915
5876 5874 5872 5871 5869 5867 5865 5864 5863 5863 5862 5862 5862 5862 5863 5864 5865 5867 5868 5869 5870 5872 5873 5874 5876 5877 5879 5881 5883 5885 5887 5889 5891 5893 5895 5898 5900 5902 5904 5907 5909 5911 5913
5874 5873 5871 5870 5868 5866 5865 5863 5862 5861 5861 5861 5861 5861 5862 5863 5864 5865 5866 5868 5869 5870 5871 5873 5874 5875 5877 5879 5881 5883 5885 5887 5889 5891 5893 5895 5897 5899 5901 5904 5906 5908 5910
5874 5872 5870 5869 5867 5865 5864 5862 5861 5860 5860 5860 5860 5860 5861 5862 5863 5864 5865 5866 5867 5869 5870 5871 5872 5874 5875 5877 5879 5881 5883 5884 5886 5888 5890 5892 5894 5896 5898 5901 5903 5905 5907
5873 5871 5870 5868 5866 5865 5863 5862 5861 5860 5859 5859 5859 5859 5860 5861 5861 5862 5863 5864 5866 5867 5868 5869 5871 5872 5873 5875 5877 5879 5880 5882 5884 5885 5886 5888 5890 5892 5894 5897 5899 5902 5904
5873 5871 5870 5868 5866 5865 5863 5862 5860 5859 5859 5858 5858 5859 5859 5860 5860 5861 5862 5863 5864 5865 5866 5867 5869 5870 5872 5873 5875 5876 5878 5879 5881 5882 5882 5883 5885 5887 5890 5893 5896 5898 5901
5872 5871 5869 5868 5866 5865 5863 5862 5861 5859 5859 5858 5858 5858 5859 5859 5859 5860 5861 5862 5862 5863 5864 5866 5867 5868 5869 5871 5872 5874 5875 5876 5878 5879 5879 5878 5879 5881 5885 5888 5891 5894 5897
5872 5871 5869 5868 5866 5865 5864 5862 5861 5860 5859 5859 5858 5858 5858 5859 5859 5859 5859 5860 5861 5862 5863 5864 5865 5866 5867 5868 5870 5871 5872 5873 5874 5876 5876 5875 5875 5877 5880 5884 5887 5890 5893
5872 5871 5870 5868 5867 5865 5864 5863 5861 5860 5859 5859 5859 5859 5858 5858 5858 5859 5859 5859 5860 5861 5861 5862 5863 5864 5865 5866 5867 5868 5869 5870 5871 5873 5874 5874 5874 5875 5877 5880 5883 5885 5888
5872 5871 5870 5868 5867 5866 5864 5863 5862 5861 5860 5859 5859 5858 5858 5858 5858 5858 5859 5859 5859 5859 5860 5861 5861 5862 5862 5863 5864 5865 5866 5867 5867 5868 5871 5872 5873 5874 5876 5877 5879 5881 5884
5872 5871 5870 5869 5868 5866 5865 5864 5862 5861 5860 5860 5859 5859 5858 5858 5858 5858 5858 5858 5858 5859 5859 5859 5860 5860 5861 5861 5862 5863 5863 5863 5863 5864 5867 5870 5871 5873 5874 5876 5877 5879 5881
5872 5871 5870 5869 5868 5867 5866 5864 5863 5862 5861 5860 5860 5859 5859 5858 5858 5858 5858 5858 5858 5858 5858 5858 5858 5859 5859 5859 5860 5860 5861 5861 5862 5863 5865 5867 5869 5871 5872 5874 5875 5877 5878
5872 5871 5870 5869 5868 5867 5866 5865 5864 5863 5862 5861 5861 5860 5859 5859 5859 5858 5858 5858 5858 5858 5858 5858 5858 5858 5858 5858 5858 5859 5859 5859 5860 5862 5863 5865 5867 5868 5870 5872 5873 5875 5877
5871 5870 5870 5869 5868 5868 5866 5865 5865 5864 5863 5862 5861 5861 5860 5860 5859 5859 5858 5858 5858 5858 5857 5857 5857 5857 5857 5857 5857 5857 5857 5858 5858 5860 5861 5863 5864 5866 5867 5869 5871 5873 5874
5870 5870 5869 5869 5868 5868 5867 5866 5865 5864 5863 5863 5862 5861 5861 5860 5860 5859 5858 5858 5858 5857 5857 5856 5856 5856 5855 5855 5855 5855 5855 5855 5856 5857 5858 5860 5861 5863 5864 5866 5868 5869 5871
5869 5869 5869 5868 5868 5867 5867 5866 5865 5865 5864 5863 5862 5862 5861 5860 5860 5859 5858 5857 5857 5856 5856 5855 5855 5854 5854 5853 5853 5853 5853 5853 5853 5854 5855 5857 5858 5860 5861 5863 5864 5866 5867
5868 5868 5868 5867 5867 5867 5866 5866 5865 5864 5864 5863 5862 5861 5861 5860 5859 5858 5857 5856 5856 5855 5854 5854 5853 5852 5852 5851 5851 5850 5850 5850 5850 5851 5852 5853 5854 5856 5857 5859 5860 5861 5863
5866 5866 5866 5866 5866 5866 5865 5865 5864 5864 5863 5862 5861 5860 5860 5859 5858 5857 5856 5855 5854 5853 5852 5852 5851 5850 5849 5849 5848 5848 5847 5847 5847 5848 5848 5849 5850 5851 5852 5853 5855 5856 5857
5864 5864 5864 5864 5864 5864 5864 5863 5863 5862 5862 5861 5860 5859 5858 5857 5856 5855 5854 5853 5852 5851 5850 5849 5848 5848 5847 5846 5845 5845 5844 5844 5844 5844 5844 5845 5845 5846 5847 5848 5849 5850 5851
5861 5861 5861 5862 5862 5862 5861 5861 5861 5861 5860 5859 5858 5857 5856 5855 5854 5853 5852 5851 5849 5848 5847 5846 5846 5845 5844 5843 5842 5841 5840 5840 5840 5839 5839 5840 5840 5841 5841 5842 5843 5843 5844
5858 5859 5859 5859 5859 5859 5859 5859 5859 5858 5858 5857 5856 5855 5854 5852 5851 5850 5849 5848 5846 5845 5844 5843 5842 5841 5840 5839 5838 5837 5836 5835 5835 5835 5834 5834 5835 5835 5835 5835 5836 5836 5836
5856 5856 5856 5856 5856 5856 5856 5856 5856 5855 5855 5854 5853 5852 5851 5849 5848 5846 5845 5844 5842 5841 5840 5838 5837 5836 5835 5834 5833 5832 5831 5830 5830 5829 5829 5828 5828 5828 5827 5828 5827 5827 5827
5852 5853 5853 5853 5853 5853 5853 5853 5852 5852 5851 5850 5849 5848 5846 5845 5843 5842 5840 5839 5837 5835 5834 5833 5831 5830 5829 5828 5826 5825 5824 5824 5823 5822 5821 5821 5820 5820 5819 5819 5818 5818 5818
5849 5849 5850 5850 5850 5850 5849 5849 5849 5848 5847 5846 5844 5843 5842 5840 5838 5837 5835 5833 5832 5830 5828 5827 5825 5823 5822 5820 5819 5818 5817 5816 5815 5814 5812 5812 5811 5811 5810 5809 5808 5808 5807
5845 5846 5846 5846 5846 5846 5845 5845 5844 5843 5842 5841 5839 5838 5836 5834 5832 5830 5829 5827 5825 5823 5821 5819 5817 5815 5813 5811 5810 5809 5808 5807 5806 5805 5803 5802 5801 5800 5800 5799 5797 5796 5795
5841 5841 5842 5842 5842 5841 5840 5840 5839 5838 5837 5835 5834 5832 5830 5827 5825 5823 5822 5820 5818 5816 5814 5812 5809 5807 5805 5802 5800 5799 5798 5796 5795 5794 5792 5790 5789 5788 5789 5788 5786 5784 5783